HZ102 OEJN-HAAB

Flight info

Callsign HZ102
Flight time 1h 49m
Altitude 40000
Route RIBA3X RIBAM G650 RASKA UG650 KONET DCT EKBOB UT114 MEKEL MEKEL2A
Aircraft B738/M-SDE2E3FGHIRWXY/LB1

Departure

Time 2026-04-27 17:41
Airport King Abdulaziz International Airport (OEJN)

Arrival

Time 2026-04-27 19:31
Airport Addis Ababa Bole International Airport (HAAB)
Time Latitude Longitude Altitude Speed Heading
2026-04-27 17:11 21.68472 39.13805 29 ft 0 kts 251°
2026-04-27 17:28 21.68480 39.13829 28 ft 4 kts 251°
2026-04-27 17:28 21.68497 39.13880 28 ft 4 kts 238°
2026-04-27 17:29 21.68513 39.13893 28 ft 4 kts 172°
2026-04-27 17:29 21.68538 39.13885 28 ft 3 kts 158°
2026-04-27 17:29 21.68541 39.13884 28 ft 0 kts 159°
2026-04-27 17:31 21.68537 39.13885 28 ft 2 kts 159°
2026-04-27 17:31 21.68508 39.13898 28 ft 7 kts 159°
2026-04-27 17:31 21.68448 39.13916 29 ft 11 kts 175°
2026-04-27 17:32 21.68383 39.13875 29 ft 12 kts 239°
2026-04-27 17:32 21.68295 39.13699 29 ft 15 kts 191°
2026-04-27 17:32 21.68192 39.13731 30 ft 17 kts 160°
2026-04-27 17:33 21.68082 39.13774 31 ft 17 kts 160°
2026-04-27 17:33 21.67975 39.13816 30 ft 16 kts 160°
2026-04-27 17:33 21.67873 39.13856 32 ft 15 kts 160°
2026-04-27 17:33 21.67774 39.13894 33 ft 15 kts 160°
2026-04-27 17:34 21.67680 39.13931 32 ft 14 kts 160°
2026-04-27 17:34 21.67590 39.13967 33 ft 13 kts 159°
2026-04-27 17:34 21.67504 39.14001 34 ft 13 kts 160°
2026-04-27 17:34 21.67421 39.14034 34 ft 13 kts 160°
2026-04-27 17:35 21.67339 39.14065 34 ft 12 kts 160°
2026-04-27 17:35 21.67259 39.14096 34 ft 12 kts 161°
2026-04-27 17:35 21.67183 39.14127 33 ft 11 kts 158°
2026-04-27 17:35 21.67124 39.14106 35 ft 11 kts 253°
2026-04-27 17:36 21.67103 39.14042 34 ft 0 kts 250°
2026-04-27 17:36 21.67103 39.14041 34 ft 0 kts 250°
2026-04-27 17:37 21.67102 39.14038 34 ft 2 kts 250°
2026-04-27 17:38 21.67092 39.14007 34 ft 6 kts 251°
2026-04-27 17:38 21.67079 39.13969 32 ft 3 kts 250°
2026-04-27 17:38 21.67075 39.13947 34 ft 2 kts 288°
2026-04-27 17:38 21.67090 39.13940 34 ft 0 kts 340°
2026-04-27 17:40 21.67094 39.13938 34 ft 5 kts 340°
2026-04-27 17:41 21.67340 39.13842 34 ft 73 kts 340°
2026-04-27 17:41 21.68029 39.13572 30 ft 135 kts 340°
2026-04-27 17:41 21.69011 39.13188 364 ft 155 kts 340°
2026-04-27 17:41 21.70014 39.12795 1102 ft 153 kts 338°
2026-04-27 17:42 21.70967 39.12290 1791 ft 154 kts 331°
2026-04-27 17:42 21.71967 39.11662 2142 ft 182 kts 329°
2026-04-27 17:42 21.73138 39.10925 2453 ft 205 kts 329°
2026-04-27 17:42 21.74383 39.10137 2907 ft 213 kts 329°
2026-04-27 17:43 21.75474 39.08983 3118 ft 238 kts 295°
2026-04-27 17:43 21.75714 39.07151 3479 ft 261 kts 264°
2026-04-27 17:43 21.75063 39.05299 4143 ft 272 kts 238°
2026-04-27 17:43 21.73685 39.03889 4882 ft 278 kts 211°
2026-04-27 17:44 21.71827 39.03256 5623 ft 284 kts 186°
2026-04-27 17:44 21.69851 39.03250 6412 ft 285 kts 179°
2026-04-27 17:44 21.67859 39.03374 7144 ft 289 kts 177°
2026-04-27 17:44 21.65847 39.03515 7931 ft 290 kts 178°
2026-04-27 17:45 21.63827 39.03649 8716 ft 291 kts 178°
2026-04-27 17:45 21.61797 39.03782 9481 ft 293 kts 178°
2026-04-27 17:45 21.59751 39.03916 10239 ft 296 kts 178°
2026-04-27 17:45 21.57625 39.04055 10546 ft 317 kts 179°
2026-04-27 17:46 21.55344 39.04203 10727 ft 339 kts 179°
2026-04-27 17:46 21.52921 39.04361 10912 ft 358 kts 179°
2026-04-27 17:46 21.50393 39.04529 11312 ft 368 kts 179°
2026-04-27 17:46 21.47837 39.04700 12093 ft 366 kts 179°
2026-04-27 17:47 21.45296 39.04872 12825 ft 368 kts 179°
2026-04-27 17:47 21.43593 39.04986 13236 ft 371 kts 179°
2026-04-27 17:47 21.40116 39.05218 14019 ft 378 kts 180°
2026-04-27 17:47 21.37484 39.05393 14663 ft 381 kts 180°
2026-04-27 17:48 21.34828 39.05569 15331 ft 384 kts 180°
2026-04-27 17:48 21.32148 39.05747 15952 ft 387 kts 180°
2026-04-27 17:48 21.29454 39.05926 16549 ft 391 kts 181°
2026-04-27 17:48 21.26726 39.06107 17128 ft 395 kts 181°
2026-04-27 17:49 21.23970 39.06290 17715 ft 398 kts 181°
2026-04-27 17:49 21.21196 39.06473 18277 ft 401 kts 181°
2026-04-27 17:49 21.18403 39.06659 18839 ft 403 kts 181°
2026-04-27 17:49 21.15593 39.06845 19388 ft 406 kts 181°
2026-04-27 17:50 21.12767 39.07032 19921 ft 408 kts 181°
2026-04-27 17:50 21.07075 39.07408 20926 ft 412 kts 182°
2026-04-27 17:50 21.04196 39.07598 21390 ft 415 kts 182°
2026-04-27 17:51 21.01304 39.07789 21823 ft 418 kts 182°
2026-04-27 17:51 20.98398 39.07982 22238 ft 420 kts 182°
2026-04-27 17:51 20.95474 39.08176 22669 ft 422 kts 182°
2026-04-27 17:51 20.92533 39.08371 23055 ft 424 kts 182°
2026-04-27 17:52 20.89584 39.08566 23472 ft 425 kts 182°
2026-04-27 17:52 20.86624 39.08761 23839 ft 427 kts 182°
2026-04-27 17:52 20.83649 39.08958 24179 ft 429 kts 182°
2026-04-27 17:52 20.81672 39.09089 24369 ft 432 kts 182°
2026-04-27 17:53 20.77677 39.09352 24723 ft 436 kts 182°
2026-04-27 17:53 20.74636 39.09553 25000 ft 439 kts 182°
2026-04-27 17:53 20.71575 39.09754 25282 ft 442 kts 182°
2026-04-27 17:53 20.68504 39.09817 25528 ft 442 kts 186°
2026-04-27 17:54 20.65427 39.09756 25784 ft 443 kts 187°
2026-04-27 17:54 20.62333 39.09658 26028 ft 446 kts 187°
2026-04-27 17:54 20.59222 39.09551 26271 ft 448 kts 187°
2026-04-27 17:54 20.56099 39.09447 26492 ft 451 kts 187°
2026-04-27 17:55 20.52946 39.09350 26707 ft 454 kts 187°
2026-04-27 17:55 20.49778 39.09261 26915 ft 457 kts 187°
2026-04-27 17:55 20.46594 39.09176 27152 ft 459 kts 187°
2026-04-27 17:55 20.43396 39.09093 27363 ft 461 kts 187°
2026-04-27 17:56 20.40178 39.09011 27557 ft 464 kts 187°
2026-04-27 17:56 20.36940 39.08929 27764 ft 466 kts 187°
2026-04-27 17:56 20.33701 39.08848 28020 ft 467 kts 187°
2026-04-27 17:56 20.30455 39.08768 28314 ft 466 kts 187°
2026-04-27 17:57 20.27212 39.08687 28651 ft 465 kts 187°
2026-04-27 17:57 20.23973 39.08607 28904 ft 466 kts 187°
2026-04-27 17:57 20.20724 39.08525 29143 ft 468 kts 188°
2026-04-27 17:57 20.17465 39.08441 29381 ft 469 kts 188°
2026-04-27 17:58 20.14199 39.08357 29684 ft 469 kts 188°
2026-04-27 17:58 20.10932 39.08275 30022 ft 469 kts 188°
2026-04-27 17:58 20.07672 39.08192 30314 ft 469 kts 188°
2026-04-27 17:58 20.04405 39.08109 30601 ft 470 kts 188°
2026-04-27 17:59 20.01139 39.08027 30929 ft 469 kts 188°
2026-04-27 17:59 19.97874 39.07946 31238 ft 470 kts 187°
2026-04-27 17:59 19.94605 39.07862 31499 ft 471 kts 187°
2026-04-27 17:59 19.91325 39.07778 31746 ft 472 kts 187°
2026-04-27 18:00 19.88041 39.07695 32081 ft 472 kts 187°
2026-04-27 18:00 19.84765 39.07614 32452 ft 470 kts 187°
2026-04-27 18:00 19.81498 39.07532 32779 ft 469 kts 187°
2026-04-27 18:00 19.78229 39.07449 33074 ft 470 kts 187°
2026-04-27 18:01 19.74963 39.07366 33391 ft 469 kts 186°
2026-04-27 18:01 19.71697 39.07283 33689 ft 470 kts 186°
2026-04-27 18:01 19.68432 39.07200 33997 ft 469 kts 186°
2026-04-27 18:01 19.65167 39.07118 34300 ft 469 kts 186°
2026-04-27 18:02 19.61948 39.07039 34634 ft 468 kts 186°
2026-04-27 18:02 19.58695 39.06958 35022 ft 466 kts 186°
2026-04-27 18:02 19.55460 39.06877 35374 ft 465 kts 186°
2026-04-27 18:02 19.52230 39.06796 35722 ft 464 kts 186°
2026-04-27 18:03 19.49009 39.06714 36055 ft 462 kts 186°
2026-04-27 18:03 19.45795 39.06633 36358 ft 462 kts 186°
2026-04-27 18:03 19.43624 39.06578 36531 ft 462 kts 186°
2026-04-27 18:03 19.40452 39.06498 36784 ft 462 kts 186°
2026-04-27 18:04 19.37246 39.06418 37119 ft 460 kts 186°
2026-04-27 18:04 19.34056 39.06339 37511 ft 456 kts 186°
2026-04-27 18:04 19.30852 39.06259 37925 ft 453 kts 186°
2026-04-27 18:04 19.27761 39.06182 38304 ft 449 kts 186°
2026-04-27 18:05 19.24638 39.06104 38580 ft 448 kts 185°
2026-04-27 18:05 19.21518 39.06025 38764 ft 449 kts 185°
2026-04-27 18:05 19.18398 39.05945 39003 ft 448 kts 185°
2026-04-27 18:05 19.15286 39.05868 39329 ft 445 kts 185°
2026-04-27 18:06 19.12188 39.05789 39525 ft 445 kts 186°
2026-04-27 18:06 19.09091 39.05659 39667 ft 446 kts 187°
2026-04-27 18:06 19.05989 39.05487 39846 ft 446 kts 187°
2026-04-27 18:06 19.02889 39.05300 39993 ft 447 kts 187°
2026-04-27 18:07 18.96639 39.04921 39992 ft 453 kts 187°
2026-04-27 18:07 18.90306 39.04558 40005 ft 459 kts 186°
2026-04-27 18:08 18.83910 39.04203 40005 ft 462 kts 186°
2026-04-27 18:08 18.77473 39.03848 40004 ft 464 kts 186°
2026-04-27 18:09 18.71022 39.03492 40008 ft 464 kts 186°
2026-04-27 18:09 18.64567 39.03136 40008 ft 464 kts 186°
2026-04-27 18:10 18.58130 39.02780 40014 ft 463 kts 186°
2026-04-27 18:10 18.51707 39.02425 40022 ft 462 kts 186°
2026-04-27 18:11 18.45304 39.02072 40068 ft 460 kts 186°
2026-04-27 18:11 18.38920 39.01719 40108 ft 459 kts 186°
2026-04-27 18:12 18.32591 39.01370 40140 ft 458 kts 186°
2026-04-27 18:12 18.26220 39.01019 40150 ft 459 kts 186°
2026-04-27 18:13 18.19844 39.00668 40142 ft 459 kts 186°
2026-04-27 18:13 18.13452 39.00344 40103 ft 460 kts 185°
2026-04-27 18:14 18.07038 39.00117 40064 ft 461 kts 185°
2026-04-27 18:14 18.00618 38.99902 40017 ft 462 kts 185°
2026-04-27 18:15 17.94189 38.99675 39992 ft 462 kts 184°
2026-04-27 18:15 17.87760 38.99441 39989 ft 462 kts 185°
2026-04-27 18:16 17.81327 38.99205 39990 ft 462 kts 185°
2026-04-27 18:16 17.74902 38.98972 39988 ft 462 kts 185°
2026-04-27 18:17 17.68473 38.98736 39994 ft 462 kts 184°
2026-04-27 18:17 17.62094 38.98505 40024 ft 461 kts 184°
2026-04-27 18:18 17.55675 38.98272 40042 ft 461 kts 184°
2026-04-27 18:18 17.49257 38.98038 40041 ft 462 kts 184°
2026-04-27 18:19 17.42830 38.97805 40051 ft 462 kts 184°
2026-04-27 18:19 17.36400 38.97571 40048 ft 463 kts 184°
2026-04-27 18:20 17.29962 38.97338 40050 ft 463 kts 184°
2026-04-27 18:20 17.23521 38.97104 40045 ft 463 kts 184°
2026-04-27 18:21 17.17069 38.96870 40049 ft 464 kts 184°
2026-04-27 18:21 17.10624 38.96637 40044 ft 464 kts 184°
2026-04-27 18:22 17.04176 38.96404 40042 ft 464 kts 184°
2026-04-27 18:22 16.97768 38.96172 40045 ft 464 kts 184°
2026-04-27 18:23 16.91274 38.95937 40049 ft 464 kts 184°
2026-04-27 18:23 16.84867 38.95706 40042 ft 464 kts 184°
2026-04-27 18:24 16.78410 38.95472 40000 ft 465 kts 184°
2026-04-27 18:24 16.71947 38.95239 39955 ft 465 kts 184°
2026-04-27 18:25 16.65473 38.95006 39918 ft 465 kts 184°
2026-04-27 18:25 16.59003 38.94773 39906 ft 465 kts 184°
2026-04-27 18:26 16.52544 38.94539 39911 ft 464 kts 184°
2026-04-27 18:26 16.46092 38.94307 39907 ft 464 kts 184°
2026-04-27 18:27 16.39644 38.94076 39905 ft 463 kts 184°
2026-04-27 18:27 16.33207 38.93845 39917 ft 463 kts 184°
2026-04-27 18:28 16.26769 38.93614 39914 ft 463 kts 184°
2026-04-27 18:28 16.20336 38.93382 39918 ft 462 kts 184°
2026-04-27 18:29 16.13909 38.93149 39914 ft 463 kts 184°
2026-04-27 18:29 16.07469 38.92920 39917 ft 463 kts 184°
2026-04-27 18:30 16.01020 38.92691 39918 ft 464 kts 184°
2026-04-27 18:30 15.94598 38.92461 39921 ft 465 kts 183°
2026-04-27 18:31 15.88135 38.92230 39928 ft 465 kts 183°
2026-04-27 18:31 15.81666 38.92000 39926 ft 466 kts 183°
2026-04-27 18:32 15.75186 38.91769 39926 ft 466 kts 183°
2026-04-27 18:32 15.68711 38.91537 39924 ft 465 kts 183°
2026-04-27 18:33 15.62243 38.91305 39925 ft 465 kts 183°
2026-04-27 18:33 15.55772 38.91074 39935 ft 465 kts 183°
2026-04-27 18:34 15.49303 38.90844 39940 ft 465 kts 183°
2026-04-27 18:34 15.42832 38.90614 39935 ft 466 kts 183°
2026-04-27 18:35 15.36350 38.90383 39936 ft 466 kts 183°
2026-04-27 18:35 15.29910 38.90153 39941 ft 466 kts 183°
2026-04-27 18:36 15.23431 38.90020 39944 ft 466 kts 181°
2026-04-27 18:36 15.16946 38.90044 39944 ft 466 kts 180°
2026-04-27 18:37 15.10465 38.90072 39947 ft 466 kts 181°
2026-04-27 18:37 15.03982 38.90072 39948 ft 466 kts 181°
2026-04-27 18:38 14.97506 38.90063 39959 ft 465 kts 181°
2026-04-27 18:38 14.91031 38.90054 39955 ft 466 kts 181°
2026-04-27 18:39 14.84547 38.90043 39956 ft 466 kts 181°
2026-04-27 18:39 14.78114 38.90033 39965 ft 465 kts 181°
2026-04-27 18:40 14.71636 38.90027 39961 ft 465 kts 181°
2026-04-27 18:40 14.65165 38.90018 39959 ft 466 kts 180°
2026-04-27 18:41 14.58686 38.90013 39977 ft 465 kts 180°
2026-04-27 18:41 14.52216 38.90003 39964 ft 465 kts 180°
2026-04-27 18:42 14.46840 38.90201 39985 ft 465 kts 175°
2026-04-27 18:42 14.39310 38.91067 39975 ft 466 kts 173°
2026-04-27 18:43 14.32869 38.91862 39984 ft 466 kts 174°
2026-04-27 18:43 14.26425 38.92610 39982 ft 466 kts 174°
2026-04-27 18:44 14.19975 38.93328 39984 ft 466 kts 174°
2026-04-27 18:44 14.13530 38.94038 39990 ft 466 kts 174°
2026-04-27 18:45 14.07083 38.94747 39992 ft 465 kts 174°
2026-04-27 18:45 14.00646 38.95458 39997 ft 465 kts 174°
2026-04-27 18:46 13.94207 38.96168 39998 ft 465 kts 174°
2026-04-27 18:46 13.87775 38.96877 40002 ft 465 kts 174°
2026-04-27 18:47 13.81378 38.97581 40009 ft 465 kts 174°
2026-04-27 18:47 13.74950 38.98289 40009 ft 465 kts 173°
2026-04-27 18:48 13.68509 38.98998 40011 ft 465 kts 173°
2026-04-27 18:48 13.62082 38.99705 40020 ft 465 kts 173°
2026-04-27 18:49 13.55652 39.00412 40018 ft 465 kts 173°
2026-04-27 18:49 13.49217 39.01119 40028 ft 465 kts 173°
2026-04-27 18:50 13.42784 39.01825 40029 ft 465 kts 173°
2026-04-27 18:50 13.36352 39.02531 40034 ft 465 kts 173°
2026-04-27 18:51 13.29917 39.03237 40038 ft 465 kts 173°
2026-04-27 18:51 13.23490 39.03942 40043 ft 465 kts 173°
2026-04-27 18:52 13.17057 39.04647 40039 ft 465 kts 173°
2026-04-27 18:53 13.07424 39.05702 40047 ft 464 kts 173°
2026-04-27 18:53 13.01036 39.06401 40060 ft 464 kts 173°
2026-04-27 18:54 12.94607 39.07105 40067 ft 464 kts 173°
2026-04-27 18:54 12.89224 39.07693 40072 ft 465 kts 173°
2026-04-27 18:55 12.82792 39.08396 40079 ft 465 kts 173°
2026-04-27 18:55 12.75312 39.09213 40068 ft 465 kts 173°
2026-04-27 18:56 12.69923 39.09801 40088 ft 465 kts 173°
2026-04-27 18:56 12.63498 39.10503 40122 ft 464 kts 173°
2026-04-27 18:57 12.57117 39.11199 40129 ft 464 kts 173°
2026-04-27 18:57 12.50689 39.11899 40142 ft 465 kts 173°
2026-04-27 18:58 12.44257 39.12600 40141 ft 465 kts 173°
2026-04-27 18:58 12.37825 39.13301 40147 ft 465 kts 173°
2026-04-27 18:59 12.31388 39.14001 40155 ft 465 kts 173°
2026-04-27 18:59 12.24948 39.14702 40161 ft 465 kts 173°
2026-04-27 19:00 12.18515 39.15401 40161 ft 465 kts 173°
2026-04-27 19:00 12.12080 39.16101 40150 ft 465 kts 173°
2026-04-27 19:01 12.05650 39.16799 40164 ft 465 kts 173°
2026-04-27 19:01 11.99223 39.17497 40176 ft 464 kts 173°
2026-04-27 19:02 11.92787 39.18196 40172 ft 465 kts 173°
2026-04-27 19:02 11.86361 39.18893 40180 ft 465 kts 173°
2026-04-27 19:03 11.79931 39.19590 40189 ft 465 kts 173°
2026-04-27 19:03 11.73494 39.20288 40186 ft 465 kts 173°
2026-04-27 19:04 11.67098 39.20981 40198 ft 465 kts 173°
2026-04-27 19:04 11.60619 39.21682 40198 ft 465 kts 173°
2026-04-27 19:05 11.54216 39.22375 40196 ft 465 kts 173°
2026-04-27 19:05 11.47782 39.23072 40211 ft 465 kts 173°
2026-04-27 19:06 11.41348 39.23755 40228 ft 465 kts 175°
2026-04-27 19:06 11.34908 39.23256 40248 ft 466 kts 191°
2026-04-27 19:07 11.28564 39.21877 40247 ft 466 kts 191°
2026-04-27 19:07 11.22211 39.20496 40250 ft 467 kts 191°
2026-04-27 19:08 11.15846 39.19161 40251 ft 467 kts 191°
2026-04-27 19:08 11.09477 39.17845 40258 ft 467 kts 191°
2026-04-27 19:09 11.03101 39.16529 40262 ft 468 kts 191°
2026-04-27 19:09 10.96718 39.15210 40266 ft 468 kts 191°
2026-04-27 19:10 10.90379 39.13900 40276 ft 468 kts 191°
2026-04-27 19:10 10.83994 39.12581 40274 ft 468 kts 191°
2026-04-27 19:11 10.77608 39.11263 40288 ft 468 kts 191°
2026-04-27 19:11 10.71204 39.10045 40287 ft 468 kts 187°
2026-04-27 19:12 10.64744 39.09175 40289 ft 468 kts 186°
2026-04-27 19:12 10.58278 39.08357 40294 ft 468 kts 186°
2026-04-27 19:13 10.51810 39.07502 40294 ft 469 kts 186°
2026-04-27 19:13 10.45348 39.06620 40306 ft 469 kts 187°
2026-04-27 19:14 10.38887 39.05732 40180 ft 470 kts 187°
2026-04-27 19:14 10.35634 39.05286 39601 ft 472 kts 187°
2026-04-27 19:14 10.32394 39.04841 39008 ft 469 kts 187°
2026-04-27 19:14 10.29162 39.04398 38399 ft 468 kts 187°
2026-04-27 19:15 10.25942 39.03956 37770 ft 468 kts 187°
2026-04-27 19:15 10.22724 39.03516 37125 ft 467 kts 187°
2026-04-27 19:15 10.19506 39.03076 36466 ft 466 kts 187°
2026-04-27 19:15 10.16291 39.02636 35757 ft 466 kts 187°
2026-04-27 19:16 10.13069 39.02195 35012 ft 467 kts 187°
2026-04-27 19:16 10.10938 39.01904 34510 ft 468 kts 187°
2026-04-27 19:16 10.06617 39.01313 33461 ft 469 kts 187°
2026-04-27 19:16 10.03417 39.00876 32651 ft 471 kts 187°
2026-04-27 19:17 10.00167 39.00431 31799 ft 472 kts 187°
2026-04-27 19:17 9.96908 38.99986 30912 ft 474 kts 187°
2026-04-27 19:17 9.93631 38.99540 29976 ft 476 kts 187°
2026-04-27 19:17 9.90342 38.99091 28986 ft 478 kts 187°
2026-04-27 19:18 9.87052 38.98641 28151 ft 476 kts 187°
2026-04-27 19:18 9.83791 38.98195 27432 ft 471 kts 186°
2026-04-27 19:18 9.80556 38.97750 26682 ft 467 kts 186°
2026-04-27 19:18 9.77349 38.97312 25960 ft 463 kts 186°
2026-04-27 19:19 9.74170 38.96878 25233 ft 459 kts 186°
2026-04-27 19:19 9.71026 38.96450 24514 ft 455 kts 186°
2026-04-27 19:19 9.67900 38.96023 23792 ft 451 kts 186°
2026-04-27 19:19 9.64807 38.95601 23083 ft 448 kts 186°
2026-04-27 19:20 9.61730 38.95182 22366 ft 444 kts 186°
2026-04-27 19:20 9.58678 38.94766 21664 ft 440 kts 186°
2026-04-27 19:20 9.55651 38.94354 20946 ft 437 kts 186°
2026-04-27 19:20 9.52654 38.93944 20234 ft 433 kts 186°
2026-04-27 19:21 9.49680 38.93539 19533 ft 430 kts 186°
2026-04-27 19:21 9.46732 38.93138 18849 ft 426 kts 186°
2026-04-27 19:21 9.43808 38.92739 18133 ft 423 kts 186°
2026-04-27 19:21 9.40898 38.92395 17438 ft 418 kts 180°
2026-04-27 19:22 9.38047 38.92809 16709 ft 412 kts 161°
2026-04-27 19:22 9.35466 38.94050 15869 ft 411 kts 146°
2026-04-27 19:22 9.33102 38.95656 15137 ft 408 kts 144°
2026-04-27 19:22 9.30779 38.97276 14458 ft 402 kts 144°
2026-04-27 19:23 9.28485 38.98856 13813 ft 392 kts 145°
2026-04-27 19:23 9.26289 39.00353 13537 ft 373 kts 145°
2026-04-27 19:23 9.24190 39.01772 13335 ft 363 kts 145°
2026-04-27 19:23 9.22121 39.03170 13181 ft 350 kts 145°
2026-04-27 19:24 9.20033 39.04346 13011 ft 339 kts 156°
2026-04-27 19:24 9.17869 39.05179 12904 ft 328 kts 159°
2026-04-27 19:24 9.15749 39.05946 12749 ft 317 kts 159°
2026-04-27 19:24 9.13704 39.06667 12609 ft 308 kts 165°
2026-04-27 19:25 9.11599 39.06722 12476 ft 301 kts 191°
2026-04-27 19:25 9.09674 39.05945 12104 ft 297 kts 212°
2026-04-27 19:25 9.08158 39.04573 11770 ft 288 kts 227°
2026-04-27 19:25 9.06863 39.03085 11431 ft 275 kts 228°
2026-04-27 19:26 9.05627 39.01665 11061 ft 263 kts 227°
2026-04-27 19:26 9.04439 39.00310 10727 ft 251 kts 227°
2026-04-27 19:26 9.03439 38.98934 10445 ft 237 kts 247°
2026-04-27 19:26 9.02979 38.97391 10304 ft 222 kts 253°
2026-04-27 19:27 9.02546 38.95923 10124 ft 213 kts 253°
2026-04-27 19:27 9.02142 38.94536 9956 ft 199 kts 254°
2026-04-27 19:27 9.01751 38.93192 9839 ft 202 kts 254°
2026-04-27 19:27 9.01361 38.91851 9697 ft 195 kts 254°
2026-04-27 19:28 9.00989 38.90574 9475 ft 185 kts 254°
2026-04-27 19:28 9.00639 38.89369 9241 ft 171 kts 254°
2026-04-27 19:28 9.00307 38.88227 9021 ft 169 kts 253°
2026-04-27 19:28 8.99977 38.87092 8810 ft 168 kts 253°
2026-04-27 19:29 8.99648 38.85961 8600 ft 167 kts 252°
2026-04-27 19:29 8.99320 38.84828 8382 ft 169 kts 253°
2026-04-27 19:29 8.98990 38.83692 8170 ft 168 kts 253°
2026-04-27 19:29 8.98663 38.82567 7949 ft 166 kts 253°
2026-04-27 19:30 8.98339 38.81453 7729 ft 164 kts 253°
2026-04-27 19:30 8.98022 38.80370 7624 ft 152 kts 253°
2026-04-27 19:30 8.97779 38.79542 7618 ft 94 kts 253°
2026-04-27 19:30 8.97643 38.79080 7619 ft 51 kts 254°
2026-04-27 19:31 8.97583 38.78865 7620 ft 19 kts 256°
2026-04-27 19:31 8.97643 38.78800 7620 ft 14 kts 342°
2026-04-27 19:31 8.97731 38.78774 7620 ft 13 kts 343°
2026-04-27 19:31 8.97816 38.78747 7620 ft 13 kts 343°
2026-04-27 19:32 8.97864 38.78786 7622 ft 10 kts 73°
2026-04-27 19:32 8.97883 38.78850 7623 ft 9 kts 73°
2026-04-27 19:32 8.97900 38.78907 7620 ft 8 kts 72°
2026-04-27 19:32 8.97915 38.78957 7620 ft 7 kts 73°
2026-04-27 19:33 8.97929 38.79006 7620 ft 7 kts 73°
2026-04-27 19:33 8.97938 38.79038 7620 ft 7 kts 73°
2026-04-27 19:33 8.97956 38.79099 7620 ft 7 kts 73°
2026-04-27 19:33 8.97969 38.79145 7620 ft 7 kts 74°
2026-04-27 19:34 8.97982 38.79189 7620 ft 6 kts 73°
2026-04-27 19:34 8.97994 38.79231 7620 ft 6 kts 74°
2026-04-27 19:34 8.98006 38.79272 7620 ft 6 kts 73°
2026-04-27 19:34 8.97995 38.79294 7620 ft 4 kts 153°
2026-04-27 19:35 8.97969 38.79303 7620 ft 4 kts 163°
2026-04-27 19:35 8.97942 38.79310 7620 ft 4 kts 163°
2026-04-27 19:35 8.97925 38.79316 7619 ft 0 kts 164°